Theta_e
301 300 299 301 302 303 299 292 286 297 298 284 286 279 287 290 288 292 289 289 286 285 285 283 284 284 287 290 291 286 292 286 282 285 292 294 293 289 289 282 282 284 283 283
299 299 300 301 302 303 294 290 289 297 296 280 281 288 288 290 288 288 288 287 289 289 284 281 285 287 292 291 290 289 290 285 278 282 287 292 289 290 291 290 289 283 280 285
299 300 299 300 302 303 295 289 282 288 290 289 284 284 286 285 291 289 289 289 290 286 284 286 284 286 289 291 290 296 294 288 283 277 281 286 284 289 292 289 283 284 286 289
299 299 299 300 302 303 294 289 284 286 280 283 284 285 286 284 285 290 289 287 286 284 280 282 283 285 286 289 292 290 288 283 286 287 289 287 287 289 289 287 288 284 288 290
299 298 298 300 301 302 292 280 284 288 286 287 284 285 284 285 285 285 284 284 285 285 281 284 281 284 284 284 288 287 289 283 286 284 289 288 287 289 289 290 290 290 291 291
299 298 297 299 301 300 292 292 293 287 287 284 282 284 286 286 288 288 289 286 284 283 287 288 289 289 289 288 286 285 285 284 283 281 287 287 284 287 289 289 291 292 287 291
299 298 298 299 300 301 297 294 290 283 279 283 285 288 288 287 288 285 288 289 286 290 293 292 291 291 291 291 290 290 285 284 284 280 283 276 286 292 293 288 288 290 292 292
298 298 298 298 300 302 298 296 292 286 279 286 287 288 288 288 289 288 289 292 293 293 289 284 282 282 285 289 291 290 291 286 280 277 278 285 285 286 287 287 285 288 290 291
299 299 299 298 300 301 297 297 295 290 281 283 290 286 289 284 283 284 290 293 294 292 286 279 277 277 283 282 286 291 291 289 282 279 277 275 282 287 291 291 279 289 288 288
299 299 299 298 299 301 298 293 295 290 284 288 289 286 285 289 286 282 287 288 287 291 279 278 277 278 286 280 280 280 281 282 279 278 278 282 285 289 291 280 280 289 289 288
299 299 299 299 299 300 297 294 298 290 286 287 292 293 289 288 286 281 285 283 284 282 278 281 279 278 282 282 286 284 280 277 274 279 277 275 288 287 282 286 290 290 290 289
299 299 299 298 299 299 298 293 299 298 289 288 292 292 294 293 292 288 287 285 285 285 279 280 281 278 281 281 280 289 281 284 281 281 280 286 287 287 289 290 287 288 289 290
299 299 298 298 298 299 297 292 295 293 288 287 286 288 295 298 296 296 285 287 290 289 291 284 283 278 279 279 279 284 288 290 282 284 284 284 285 286 288 288 288 289 288 287
298 298 298 298 297 297 297 292 295 293 290 283 286 299 294 299 298 297 295 293 293 291 289 284 281 280 286 280 283 284 285 285 279 282 283 284 284 285 286 286 287 287 288 286
297 297 298 297 296 297 295 293 295 295 290 284 283 291 295 296 296 295 295 293 290 288 281 281 278 284 283 285 286 283 285 281 280 278 283 283 282 285 285 283 284 285 285 285
297 297 297 297 296 297 291 287 294 297 297 287 280 291 294 296 295 294 293 292 289 287 284 279 283 288 283 281 277 283 285 285 285 283 286 285 285 285 286 284 284 285 284 284
297 297 297 296 297 292 286 287 293 298 298 288 281 282 292 295 293 291 290 291 289 287 285 282 283 284 287 281 276 283 284 285 285 287 287 282 283 282 285 286 287 285 284 283
297 297 297 296 296 294 288 294 298 299 292 290 281 280 285 293 287 283 288 287 289 286 284 284 283 285 286 279 284 285 285 285 285 284 284 283 284 283 282 283 285 282 281 280
296 296 296 292 288 284 287 300 300 298 291 284 284 279 274 292 288 288 287 288 282 286 282 282 283 278 277 282 282 282 283 282 283 285 284 283 281 280 280 280 280 278 277 277
296 291 285 279 285 299 297 292 287 287 288 288 283 285 279 287 283 284 283 287 283 277 281 286 280 276 281 281 281 282 281 281 281 281 277 278 278 278 277 276 276 276 275 275
288 284 282 289 298 290 288 282 282 283 282 283 284 285 280 289 281 279 283 284 283 277 281 282 281 276 278 280 279 280 279 278 277 276 275 275 276 276 275 274 274 274 274 273
288 288 293 291 287 284 280 280 280 281 279 281 281 282 286 286 289 284 285 281 281 276 285 280 274 276 278 278 277 277 277 275 274 274 273 273 274 274 273 273 272 272 273 272
291 287 284 283 283 277 275 273 277 275 281 283 282 278 284 285 287 279 282 280 278 281 278 275 274 277 277 276 275 274 275 275 274 272 272 271 270 270 270 268 267 268 266 267
281 280 272 277 278 279 277 278 279 283 284 285 284 281 281 281 282 284 279 279 283 277 272 272 275 275 275 275 275 273 271 271 270 269 268 267 268 267 266 264 264 263 263 261
281 282 272 278 284 284 285 286 284 285 286 285 282 282 284 281 279 282 279 278 272 276 270 271 274 274 274 273 273 271 270 268 267 266 266 266 266 267 266 267 265 265 264 265
283 281 277 282 282 281 284 285 285 287 282 283 282 279 281 276 281 279 274 276 272 274 273 274 274 272 271 271 271 271 270 269 267 267 268 267 265 264 263 264 264 261 261 260
280 279 281 281 282 283 283 285 285 287 283 281 283 277 279 281 276 278 278 274 269 274 274 274 273 271 269 269 270 269 271 270 269 268 267 266 267 268 270 267 264 265 264 262
Wind_Speed
6 5 2 3 6 10 1 3 2 4 4 3 2 1 1 2 5 8 4 5 4 7 13 5 6 6 8 11 10 10 6 3 7 6 18 7 14 6 5 4 5 2 7 3
6 5 2 3 5 8 3 3 3 2 5 1 2 2 4 3 3 4 2 4 4 9 7 6 8 8 11 14 14 11 7 4 5 12 10 12 4 12 11 12 3 2 2 5
6 5 2 3 6 7 1 2 3 1 1 3 2 4 2 4 6 4 5 5 5 6 8 10 10 11 12 15 17 14 4 3 3 1 7 7 11 17 16 6 3 3 3 9
7 6 2 3 6 6 1 3 3 3 2 2 4 4 5 9 4 5 7 5 9 8 5 10 7 18 22 13 7 8 6 4 8 13 13 10 14 11 12 9 8 2 5 14
8 6 2 3 7 5 1 3 2 5 4 5 4 1 3 7 8 7 7 6 9 8 8 9 13 16 15 10 3 9 7 4 9 7 11 9 6 8 9 8 12 11 11 10
9 5 3 3 6 2 1 3 4 3 5 4 2 4 1 4 3 4 7 5 5 8 6 10 14 16 19 19 15 12 5 4 6 5 16 6 7 16 9 11 18 4 5 11
10 6 4 1 5 3 2 2 2 4 5 3 1 4 3 3 5 5 7 5 3 5 8 14 14 16 17 16 16 9 5 4 2 5 9 3 7 18 15 18 19 19 16 11
10 7 5 2 3 5 0 2 3 1 2 4 6 8 5 5 8 6 4 8 6 7 7 5 7 6 7 4 9 4 1 1 3 2 4 3 13 19 16 13 11 16 16 8
10 7 6 3 3 4 2 2 2 1 2 2 11 7 7 4 5 7 4 9 8 6 2 3 3 3 4 4 8 6 4 2 3 4 3 4 7 21 19 10 7 12 12 13
10 9 7 4 3 3 2 1 1 2 1 2 5 5 2 4 5 3 3 9 8 6 3 1 1 3 8 5 7 5 5 4 4 3 2 5 13 17 14 5 5 8 9 9
11 9 8 6 4 3 2 1 2 4 1 6 5 5 4 4 2 1 5 6 6 5 6 4 3 3 4 5 4 8 4 3 3 4 5 3 17 9 9 6 7 8 9 7
11 11 9 8 5 4 2 2 2 3 1 4 2 10 15 9 7 1 4 2 3 2 4 4 3 3 4 5 4 3 3 2 2 5 2 3 6 7 7 10 10 11 9 8
10 10 10 9 6 4 2 2 2 3 1 5 2 6 8 7 12 7 2 3 2 4 2 1 3 2 3 3 4 4 3 7 4 3 6 7 9 7 9 10 11 10 12 14
11 9 10 8 7 4 2 2 3 3 1 3 6 7 3 4 8 9 7 4 3 2 1 0 2 1 2 2 4 3 3 5 4 4 5 5 9 7 7 9 11 11 10 11
11 9 11 9 6 5 1 1 3 3 2 3 5 12 8 9 6 5 8 4 2 2 2 1 3 3 3 3 2 2 4 3 2 1 1 4 4 4 6 7 8 10 11 9
10 9 10 9 7 5 1 2 2 5 2 0 4 5 4 5 5 6 3 5 2 3 2 3 3 4 3 1 1 4 5 5 3 2 2 6 6 4 4 4 4 8 9 11
11 9 10 8 6 2 3 1 1 5 3 2 4 4 2 6 4 3 4 4 1 2 2 2 3 2 2 1 2 7 6 5 4 3 1 6 7 3 5 5 2 8 9 11
12 10 8 6 4 2 3 2 4 2 3 1 3 5 1 4 2 1 1 1 1 2 3 3 3 2 3 1 8 9 7 7 6 6 7 5 5 6 8 9 9 10 10 10
13 11 7 3 0 2 4 7 14 3 2 2 3 2 3 1 2 3 1 1 2 3 4 3 3 2 4 5 9 9 8 6 4 6 7 6 6 7 8 9 11 11 11 9
13 5 3 2 4 11 8 3 2 1 3 3 4 3 3 4 2 2 2 2 3 2 6 2 3 3 5 8 10 9 9 11 11 6 8 6 7 5 7 10 10 10 8 8
2 3 4 4 10 2 2 3 4 3 4 4 5 6 3 2 4 3 3 2 2 2 4 3 2 3 4 8 9 8 9 11 11 12 11 11 11 9 9 10 10 9 9 8
5 3 0 2 3 4 5 4 3 5 6 4 4 5 7 1 3 3 3 3 1 5 1 2 3 3 7 7 8 8 9 11 12 11 10 11 12 10 10 9 9 9 8 6
2 2 1 3 4 6 7 8 4 3 4 3 2 1 3 2 2 3 1 3 5 2 0 2 2 7 6 7 9 10 10 11 10 11 10 10 9 9 8 6 5 6 6 6
3 4 4 4 5 5 5 4 5 6 5 6 5 2 4 2 3 2 3 4 2 3 2 2 4 7 9 9 9 9 8 7 8 7 6 6 6 5 5 5 4 4 5 4
2 3 5 4 2 2 1 3 2 3 5 6 4 2 4 1 3 3 2 2 3 1 2 2 6 8 9 8 8 7 6 5 4 3 4 4 4 5 5 5 4 4 5 6
2 4 3 3 4 2 1 2 3 4 2 3 2 3 3 3 3 3 6 2 2 3 3 6 8 9 8 7 6 6 6 6 4 4 4 4 4 4 4 3 3 3 4 4
3 2 1 2 4 3 2 2 2 3 3 2 3 4 5 3 3 3 2 1 3 7 6 6 9 8 7 6 6 5 5 5 5 4 3 3 3 4 3 3 3 2 2 2
Wind_Direction
176 161 207 312 327 333 287 251 126 226 120 63 213 206 130 168 293 298 14 279 313 344 321 325 343 320 319 354 350 345 341 291 301 279 259 272 301 183 196 203 292 263 142 201
165 176 184 324 348 21 323 261 137 248 105 104 265 211 282 231 209 344 358 284 13 349 342 339 310 327 301 8 357 347 319 332 330 350 356 21 142 273 206 217 146 60 20 88
174 184 196 336 359 7 295 338 40 320 135 217 261 28 321 297 137 247 335 313 62 335 331 338 311 315 328 344 331 317 342 329 60 234 242 266 303 322 331 175 169 204 42 109
179 188 222 355 356 0 66 29 263 170 236 318 34 350 303 288 23 37 351 325 31 3 330 328 331 323 324 336 324 333 17 303 322 306 298 239 257 333 352 25 358 211 111 90
173 182 200 11 356 1 46 125 70 337 291 139 221 181 278 31 22 7 303 351 360 344 305 317 317 319 303 292 322 352 316 292 321 327 300 239 11 360 358 34 19 93 78 80
172 185 179 15 359 360 317 316 316 89 294 284 124 186 332 331 315 292 341 338 301 283 323 314 286 269 270 258 272 295 273 314 329 284 324 238 53 352 9 55 29 16 66 107
176 183 192 50 6 13 23 296 12 60 279 319 350 358 339 327 348 283 273 271 338 320 316 297 279 257 250 254 249 208 252 314 298 280 325 40 83 18 69 73 36 20 83 101
182 172 200 110 35 25 144 8 9 13 278 334 326 6 344 6 346 327 352 18 329 323 309 331 333 329 9 18 55 20 305 185 318 40 297 136 21 359 346 355 45 16 29 74
177 176 198 131 75 38 70 5 311 353 86 315 347 316 30 31 342 343 12 350 305 322 341 31 343 324 297 323 348 345 319 172 111 328 322 41 352 327 319 310 51 17 28 29
177 180 178 140 90 117 120 226 146 55 359 295 351 37 312 320 355 291 359 338 341 10 1 349 311 330 341 354 353 332 353 10 37 338 296 105 338 334 317 57 16 25 41 38
179 170 167 159 129 117 154 64 130 113 261 296 328 341 347 349 24 16 297 8 351 344 26 17 327 5 314 353 39 336 11 22 351 359 24 357 359 19 42 341 22 48 51 48
172 171 169 164 140 133 88 83 45 72 103 267 339 268 258 230 237 20 330 259 321 304 42 16 335 330 351 323 5 4 50 9 94 37 70 54 40 39 13 20 34 20 36 67
167 175 173 174 160 129 114 64 118 66 352 289 290 247 249 205 220 197 163 310 332 67 150 229 276 308 66 24 307 2 28 26 63 171 38 76 42 31 26 33 25 25 33 21
161 171 177 172 176 165 115 136 146 94 193 293 287 358 340 244 181 192 190 229 20 44 61 247 270 265 359 263 262 66 8 12 329 95 62 95 69 31 17 33 31 30 57 44
164 175 178 167 169 179 246 242 177 181 152 318 298 310 263 241 169 190 197 178 160 80 4 344 252 277 20 305 98 60 16 33 57 80 336 282 79 46 49 43 31 31 33 49
166 173 176 168 165 169 107 318 187 192 187 356 302 299 263 144 166 192 209 140 122 124 171 235 274 260 106 304 60 114 95 74 11 130 124 101 123 82 44 78 44 45 53 46
159 161 168 174 170 155 187 148 352 311 142 184 284 273 350 102 71 31 50 56 112 152 233 243 225 270 145 256 125 130 102 91 81 37 147 101 51 57 24 12 63 81 71 70
152 152 160 163 153 341 323 217 139 45 97 195 257 265 50 138 125 72 105 106 85 276 227 280 227 281 189 125 120 124 131 125 116 101 80 90 102 70 43 38 42 75 66 66
150 147 145 92 255 201 229 164 141 149 158 231 228 216 232 186 98 83 30 119 242 234 211 239 109 279 56 36 91 84 55 46 24 135 125 115 93 84 64 49 43 59 65 59
149 126 117 192 229 135 107 72 144 135 193 222 256 214 272 143 125 175 152 191 231 228 230 149 125 89 77 64 61 60 57 48 21 85 47 51 59 90 77 67 61 63 61 56
114 151 206 234 141 100 143 197 206 167 209 210 223 192 191 253 127 174 171 208 236 264 246 150 148 111 102 92 77 61 64 61 54 62 52 44 42 56 77 69 63 61 58 59
165 160 5 75 174 179 192 206 201 195 213 207 174 202 177 176 86 121 199 224 282 252 236 123 101 100 118 110 96 74 68 77 68 63 62 52 46 59 65 68 64 56 52 37
70 194 242 190 190 178 201 186 210 176 218 169 119 31 120 53 83 71 86 231 239 0 50 86 80 125 118 110 95 76 64 73 75 72 69 68 62 55 66 66 51 59 46 25
151 181 249 212 184 217 195 187 166 219 120 124 120 110 128 150 77 135 209 229 281 273 156 145 130 122 99 92 92 90 81 83 85 83 76 71 67 57 49 56 58 66 44 6
180 219 233 240 326 36 353 297 11 355 123 123 73 53 98 45 134 193 242 243 243 38 153 114 121 113 108 104 104 105 106 103 97 98 97 102 90 79 59 41 42 50 47 45
231 240 274 309 278 117 343 355 16 355 96 68 71 125 144 188 188 165 218 238 203 144 98 116 109 104 104 105 102 104 112 116 117 109 104 97 96 117 146 83 66 64 80 61
235 244 107 264 274 356 54 15 27 340 98 157 152 148 186 99 174 194 62 164 159 125 118 110 120 122 119 113 109 112 112 112 115 122 132 164 164 145 168 153 237 198 158 162